When you browse on this site, cookies collect data to enhance your experience and personalize the content and advertising you see.
Visit our Privacy Policy to learn more. By continuing to use the site, you agree to this use of cookies and data.
  • In Schweiz
  • Länderverzeichnis
  • Für 7 Tage
  • Wassertemperatur
  • Satellitenkarten
  • Wetterkarte
  • Widgets
  • user-avatar
    Anmelden

    Stündliche Wetter Luanda

    Heute, 21 Januar, Montag

    Zeit Temperatur Niederschläge Wind Luftdruck Luftfeuchtigkeit
    00:00 +28°C° 0 mm 2 m/S 755 mmHg 80%
    01:00 +28°C° 0 mm 1 m/S 755 mmHg 81%
    02:00 +28°C° 0 mm 1 m/S 755 mmHg 82%
    03:00 +27°C° 0 mm 1 m/S 754 mmHg 84%
    04:00 +25°C° 0 mm 0 m/S 754 mmHg 85%
    05:00 +27°C° 0 mm 1 m/S 755 mmHg 85%
    06:00 +27°C° 0 mm 1 m/S 755 mmHg 84%
    07:00 +28°C° 0 mm 1 m/S 755 mmHg 82%
    08:00 +29°C° 0 mm 1 m/S 755 mmHg 74%
    09:00 +31°C° 0 mm 1 m/S 755 mmHg 67%
    10:00 +32°C° 0 mm 1 m/S 755 mmHg 60%
    11:00 +34°C° 0 mm 2 m/S 755 mmHg 58%
    12:00 +35°C° 0 mm 4 m/S 754 mmHg 55%
    13:00 +34°C° 0 mm 4 m/S 754 mmHg 57%
    14:00 +34°C° 0 mm 5 m/S 753 mmHg 57%
    15:00 +34°C° 0 mm 5 m/S 753 mmHg 58%
    16:00 +34°C° 0 mm 5 m/S 752 mmHg 59%
    17:00 +33°C° 0 mm 4 m/S 752 mmHg 64%
    18:00 +32°C° 0 mm 4 m/S 753 mmHg 69%
    19:00 +29°C° 0 mm 3 m/S 753 mmHg 73%
    20:00 +29°C° 0 mm 3 m/S 753 mmHg 74%
    21:00 +29°C° 0 mm 2 m/S 754 mmHg 76%
    22:00 +29°C° 0 mm 2 m/S 754 mmHg 77%
    23:00 +29°C° 0 mm 2 m/S 754 mmHg 78%

    Morgen, 22 Januar, Dienstag

    Zeit Temperatur Niederschläge Wind Luftdruck Luftfeuchtigkeit
    00:00 +28°C° 0 mm 2 m/S 754 mmHg 79%
    01:00 +28°C° 0 mm 2 m/S 754 mmHg 80%
    02:00 +28°C° 0 mm 2 m/S 754 mmHg 81%
    03:00 +28°C° 0 mm 2 m/S 754 mmHg 82%
    04:00 +28°C° 0 mm 2 m/S 754 mmHg 84%
    05:00 +28°C° 0 mm 2 m/S 754 mmHg 83%
    06:00 +28°C° 0 mm 2 m/S 754 mmHg 83%
    07:00 +28°C° 0 mm 2 m/S 755 mmHg 82%
    08:00 +29°C° 0 mm 2 m/S 755 mmHg 77%
    09:00 +30°C° 0 mm 2 m/S 755 mmHg 71%
    10:00 +31°C° 0 mm 2 m/S 755 mmHg 66%
    11:00 +33°C° 0 mm 3 m/S 755 mmHg 62%
    12:00 +34°C° 0 mm 3 m/S 754 mmHg 58%
    13:00 +35°C° 0 mm 4 m/S 754 mmHg 55%
    14:00 +34°C° 0 mm 5 m/S 753 mmHg 55%
    15:00 +34°C° 0 mm 5 m/S 753 mmHg 56%
    16:00 +34°C° 0 mm 6 m/S 752 mmHg 56%
    17:00 +33°C° 0 mm 5 m/S 752 mmHg 62%
    18:00 +30°C° 0 mm 5 m/S 753 mmHg 68%
    19:00 +29°C° 0 mm 5 m/S 753 mmHg 74%
    20:00 +29°C° 0 mm 4 m/S 754 mmHg 75%
    21:00 +29°C° 0 mm 4 m/S 754 mmHg 77%
    22:00 +28°C° 0 mm 4 m/S 755 mmHg 79%
    23:00 +28°C° 0 mm 3 m/S 755 mmHg 80%

    übermorgen, 23 Januar, Mittwoch

    Zeit Temperatur Niederschläge Wind Luftdruck Luftfeuchtigkeit
    00:00 +28°C° 0 mm 3 m/S 755 mmHg 81%
    01:00 +28°C° 0 mm 3 m/S 754 mmHg 82%
    02:00 +28°C° 0 mm 3 m/S 754 mmHg 82%
    03:00 +28°C° 0 mm 2 m/S 754 mmHg 82%
    04:00 +28°C° 0 mm 2 m/S 754 mmHg 83%
    05:00 +28°C° 0 mm 2 m/S 754 mmHg 82%
    06:00 +28°C° 0 mm 2 m/S 754 mmHg 81%
    07:00 +28°C° 0 mm 2 m/S 755 mmHg 80%
    08:00 +29°C° 0 mm 3 m/S 755 mmHg 77%
    09:00 +29°C° 0 mm 3 m/S 755 mmHg 73%
    10:00 +30°C° 0 mm 3 m/S 756 mmHg 70%
    11:00 +30°C° 0.1 mm 3 m/S 755 mmHg 70%
    12:00 +30°C° 0.1 mm 3 m/S 754 mmHg 70%
    13:00 +30°C° 0.1 mm 4 m/S 754 mmHg 71%
    14:00 +29°C° 0 mm 3 m/S 753 mmHg 72%
    15:00 +28°C° 0 mm 3 m/S 752 mmHg 74%
    16:00 +28°C° 0 mm 3 m/S 752 mmHg 75%
    17:00 +28°C° 0 mm 3 m/S 752 mmHg 76%
    18:00 +27°C° 0 mm 3 m/S 752 mmHg 76%
    19:00 +27°C° 0 mm 2 m/S 752 mmHg 76%
    20:00 +27°C° 0 mm 2 m/S 753 mmHg 78%
    21:00 +27°C° 0 mm 2 m/S 754 mmHg 79%
    22:00 +26°C° 0 mm 1 m/S 754 mmHg 81%
    23:00 +26°C° 0 mm 1 m/S 754 mmHg 82%

    24 Januar, Donnerstag

    Zeit Temperatur Niederschläge Wind Luftdruck Luftfeuchtigkeit
    00:00 +26°C° 0 mm 1 m/S 753 mmHg 84%
    01:00 +26°C° 0 mm 2 m/S 753 mmHg 85%
    02:00 +26°C° 0 mm 2 m/S 753 mmHg 86%
    03:00 +25°C° 0 mm 2 m/S 752 mmHg 87%
    04:00 +25°C° 0 mm 2 m/S 752 mmHg 88%
    05:00 +26°C° 0 mm 2 m/S 752 mmHg 87%
    06:00 +26°C° 0 mm 2 m/S 753 mmHg 86%
    07:00 +26°C° 0 mm 2 m/S 753 mmHg 84%
    08:00 +28°C° 0 mm 1 m/S 753 mmHg 76%
    09:00 +30°C° 0 mm 1 m/S 753 mmHg 67%
    10:00 +30°C° 0 mm 0 m/S 754 mmHg 59%
    11:00 +34°C° 0 mm 2 m/S 753 mmHg 56%
    12:00 +35°C° 0 mm 3 m/S 752 mmHg 53%
    13:00 +35°C° 0 mm 5 m/S 752 mmHg 51%
    14:00 +35°C° 0 mm 5 m/S 751 mmHg 54%
    15:00 +34°C° 0 mm 5 m/S 750 mmHg 57%
    16:00 +33°C° 0 mm 5 m/S 749 mmHg 60%
    17:00 +32°C° 0 mm 5 m/S 750 mmHg 64%
    18:00 +30°C° 0 mm 5 m/S 750 mmHg 68%
    19:00 +29°C° 0 mm 4 m/S 751 mmHg 72%
    20:00 +29°C° 0 mm 4 m/S 751 mmHg 74%
    21:00 +29°C° 0 mm 3 m/S 752 mmHg 76%
    22:00 +28°C° 0 mm 3 m/S 753 mmHg 77%
    23:00 +28°C° 0 mm 3 m/S 753 mmHg 78%

    25 Januar, Freitag

    Zeit Temperatur Niederschläge Wind Luftdruck Luftfeuchtigkeit
    00:00 +28°C° 0 mm 3 m/S 752 mmHg 79%
    01:00 +28°C° 0 mm 2 m/S 752 mmHg 80%
    02:00 +28°C° 0.1 mm 2 m/S 752 mmHg 80%
    03:00 +28°C° 0.1 mm 2 m/S 752 mmHg 80%
    04:00 +28°C° 0.1 mm 2 m/S 752 mmHg 79%
    05:00 +28°C° 0.1 mm 2 m/S 752 mmHg 79%
    06:00 +28°C° 0.1 mm 2 m/S 753 mmHg 79%
    07:00 +28°C° 0.1 mm 2 m/S 753 mmHg 79%
    08:00 +29°C° 0 mm 2 m/S 753 mmHg 76%
    09:00 +29°C° 0 mm 2 m/S 754 mmHg 72%
    10:00 +30°C° 0 mm 1 m/S 754 mmHg 69%
    11:00 +31°C° 0 mm 2 m/S 753 mmHg 64%
    12:00 +32°C° 0 mm 2 m/S 752 mmHg 59%
    13:00 +34°C° 0 mm 3 m/S 752 mmHg 54%
    14:00 +34°C° 0 mm 3 m/S 751 mmHg 55%
    15:00 +34°C° 0 mm 4 m/S 750 mmHg 56%
    16:00 +34°C° 0 mm 5 m/S 750 mmHg 56%
    17:00 +33°C° 0 mm 5 m/S 750 mmHg 62%
    18:00 +32°C° 0 mm 5 m/S 751 mmHg 68%
    19:00 +29°C° 0 mm 4 m/S 751 mmHg 74%
    20:00 +29°C° 0 mm 4 m/S 752 mmHg 75%
    21:00 +29°C° 0 mm 4 m/S 753 mmHg 76%
    22:00 +28°C° 0 mm 3 m/S 754 mmHg 78%
    23:00 +28°C° 0 mm 3 m/S 753 mmHg 79%

    26 Januar, Samstag

    Zeit Temperatur Niederschläge Wind Luftdruck Luftfeuchtigkeit
    00:00 +28°C° 0 mm 2 m/S 753 mmHg 80%
    01:00 +28°C° 0 mm 2 m/S 753 mmHg 81%
    02:00 +28°C° 0 mm 2 m/S 753 mmHg 81%
    03:00 +28°C° 0 mm 2 m/S 753 mmHg 82%
    04:00 +28°C° 0 mm 1 m/S 752 mmHg 83%
    05:00 +28°C° 0 mm 2 m/S 753 mmHg 82%
    06:00 +28°C° 0 mm 2 m/S 753 mmHg 81%
    07:00 +28°C° 0 mm 2 m/S 754 mmHg 81%
    08:00 +29°C° 0.1 mm 2 m/S 754 mmHg 77%
    09:00 +29°C° 0.1 mm 2 m/S 754 mmHg 72%
    10:00 +30°C° 0.1 mm 2 m/S 755 mmHg 68%
    11:00 +31°C° 0 mm 2 m/S 754 mmHg 64%
    12:00 +33°C° 0 mm 3 m/S 754 mmHg 60%
    13:00 +34°C° 0 mm 3 m/S 753 mmHg 56%
    14:00 +34°C° 0 mm 4 m/S 753 mmHg 57%
    15:00 +34°C° 0 mm 4 m/S 752 mmHg 57%
    16:00 +34°C° 0 mm 4 m/S 752 mmHg 57%
    17:00 +33°C° 0 mm 4 m/S 752 mmHg 62%
    18:00 +30°C° 0 mm 4 m/S 753 mmHg 67%
    19:00 +29°C° 0 mm 4 m/S 753 mmHg 73%
    20:00 +29°C° 0 mm 4 m/S 754 mmHg 74%
    21:00 +29°C° 0 mm 4 m/S 754 mmHg 76%
    22:00 +28°C° 0 mm 4 m/S 754 mmHg 77%
    23:00 +28°C° 0 mm 4 m/S 754 mmHg 78%
    Mehr zeigen